Location: Kumla
(59.1265°N, 15.1401°E)
Time: 15:51:43
(UTC+01:00)

Transit 4A - Visible Passes

Search period start: 03 December 2023 00:00
Search period end: 13 December 2023 00:00
Orbit: 864 x 979 km, 66.8° (Epoch: 02 December)

Date Brightness Start Highest point End Pass type
(mag) Time Alt. Az. Time Alt. Az. Time Alt. Az.
03 Dec 10.6 01:58:16 11° E 01:58:16 11° E 01:58:26 10° E visible
03 Dec 8.8 03:41:49 44° ESE 03:41:49 44° ESE 03:45:49 10° ESE visible
03 Dec 8.3 05:25:20 40° WSW 05:25:52 41° WSW 05:31:25 10° S visible
03 Dec 9.7 07:09:32 10° W 07:10:36 10° W 07:11:40 10° WSW visible
04 Dec 10.6 02:07:45 10° E 02:07:45 10° E 02:07:50 10° E visible
04 Dec 8.8 03:51:17 40° SE 03:51:17 40° SE 03:55:00 10° SE visible
04 Dec 8.6 05:34:49 32° WSW 05:34:49 32° WSW 05:39:58 10° S visible
05 Dec 9.0 04:00:51 34° SSE 04:00:51 34° SSE 04:04:04 10° SE visible
05 Dec 9.0 05:44:23 24° WSW 05:44:23 24° WSW 05:48:16 10° SSW visible
06 Dec 9.3 04:10:29 26° SSE 04:10:29 26° SSE 04:13:01 10° SSE visible
06 Dec 9.5 05:54:02 16° SW 05:54:02 16° SW 05:56:17 10° SSW visible
07 Dec 9.6 04:20:13 19° S 04:20:13 19° S 04:21:50 10° SSE visible
07 Dec 9.9 06:03:46 10° SW 06:03:46 10° SW 06:03:47 10° SW visible
08 Dec 10.0 04:30:01 12° S 04:30:01 12° S 04:30:30 10° S visible
08 Dec 10.1 19:34:11 10° SSW 19:34:50 13° SSW 19:34:50 13° SSW visible
09 Dec 9.8 17:59:52 10° SSE 18:01:01 13° SE 18:01:01 13° SE visible
09 Dec 9.9 19:43:00 10° SSW 19:44:34 18° SSW 19:44:34 18° SSW visible
10 Dec 9.4 18:07:51 10° SSE 18:10:41 20° SE 18:10:41 20° SE visible
10 Dec 9.6 19:51:57 10° SW 19:54:14 24° SSW 19:54:14 24° SSW visible
11 Dec 9.0 18:16:08 10° S 18:20:16 28° SE 18:20:16 28° SE visible
11 Dec 9.5 20:01:01 10° SW 20:03:48 28° SW 20:03:48 28° SW visible
12 Dec 9.8 16:44:43 10° ESE 16:45:43 10° E 16:46:13 10° E visible
12 Dec 8.5 18:24:38 10° S 18:29:45 38° SE 18:29:45 38° SE visible
12 Dec 9.4 20:10:11 10° SW 20:13:17 31° WSW 20:13:17 31° WSW visible
